Regional Weather Roundup
Issued by NWS Boston, MA

Home | Current Version | Previous Version | Text Only | Print | Product List | Glossary On
Versions: 1 2 3 4 5 6 7 8 9 10 11 12 13 14 15 16 17 18 19 20 21 22 23 24 25 26 27 28 29 30 31 32 33 34 35 36 37 38 39 40 41 42 43 44 45 46 47 48 49 50
000
ASUS41 KBOX 250210
RWRBOX

REGIONAL WEATHER ROUNDUP
NATIONAL WEATHER SERVICE TAUNTON MA
1000 PM EDT SUN MAY 24 2015

NOTE:  "FAIR" INDICATES FEW OR NO CLOUDS BELOW 12,000 FEET WITH NO
SIGNIFICANT WEATHER AND/OR OBSTRUCTIONS TO VISIBILITY.  THE FOLLOWING
OBSERVATION LOCATIONS DO NOT REPORT PRESENT WEATHER...PROVINCETOWN...
SMITHFIELD...BLOCK ISLAND...KEENE...AND OXFORD.

MAZALL-250300-
EASTERN MASSACHUSETTS

CITY           SKY/WX    TMP DP  RH WIND       PRES   REMARKS
BOSTON         CLOUDY    68  47  46 SW15      30.21R
BEVERLY        MOCLDY    70  43  37 SW15      30.19R
LAWRENCE       MOCLDY    70  43  37 SW9       30.21R
BEDFORD        MOCLDY    68  45  43 SW9       30.20R
BLUE HILL        N/A     65  47  52 SW16G25   30.23R
NORWOOD        CLOUDY    68  48  48 SW9       30.22R
MARSHFIELD     MOCLDY    64  48  55 SW9G17    30.24R
PLYMOUTH       CLOUDY    61  49  64 VRB3      30.25R
TAUNTON        CLOUDY    62  49  62 SW6       30.24R
NEW BEDFORD    CLOUDY    59  47  64 SW10      30.25R
$$

MAZALL-250300-
CAPE COD AND THE ISLANDS

CITY           SKY/WX    TMP DP  RH WIND       PRES   REMARKS
FALMOUTH       MOCLDY    59  46  63 SW16G22   30.27R
HYANNIS        MOCLDY    59  47  64 SW15      30.25R
CHATHAM        MOCLDY    57  51  80 SW9       30.27R
PROVINCETOWN   MOCLDY    55  48  76 SW14      30.24R
NANTUCKET      MOCLDY    57  48  72 SW15      30.29R
MARTHAS VNYRD  CLOUDY    59  46  62 SW13G21   30.28R
$$

MAZALL-250300-
CENTRAL AND WESTERN MASSACHUSETTS

CITY           SKY/WX    TMP DP  RH WIND       PRES   REMARKS
WORCESTER      CLOUDY    64  45  49 SW13      30.25R
FITCHBURG      CLOUDY    71  43  36 SW8       30.21R
ORANGE         CLOUDY    67  47  48 S12       30.23R
SPRINGFIELD    CLOUDY    66  50  54 S9        30.22R
WESTFIELD      CLOUDY    67  49  52 S9        30.23
NORTH ADAMS    CLOUDY    56  46  69 CALM      30.23R
PITTSFIELD     MOCLDY    61  42  49 SW6       30.23R
$$

RIZALL-250300-
RHODE ISLAND

CITY           SKY/WX    TMP DP  RH WIND       PRES   REMARKS
PROVIDENCE     CLOUDY    63  48  58 SW12      30.26R
NEWPORT        CLOUDY    57  46  66 VRB6      30.26S
BLOCK ISLAND   CLOUDY    55  48  76 SW18      30.29R
SMITHFIELD     CLOUDY    63  45  51 SW6       30.25R
WESTERLY       CLOUDY    61  47  59 SW8       30.29R
$$

CTZALL-250300-
CONNECTICUT

CITY           SKY/WX    TMP DP  RH WIND       PRES   REMARKS
BRADLEY INTL   MOCLDY    67  49  52 S8        30.23R
HARTFORD       MOCLDY    64  50  60 S6        30.25R
BRIDGEPORT     MOCLDY    62  51  67 SW6       30.27R
DANBURY        MOCLDY    63  49  60 W3        30.27R
GROTON         CLOUDY    59  46  62 SW6       30.28R
NEW HAVEN      MOCLDY    60  50  69 SW6       30.27R
CHESTER        NOT AVBL
MERIDEN        PTCLDY    63  49  60 S6        30.27R
WILLIMANTIC    CLOUDY    65  49  56 S5        30.26R
OXFORD         PTCLDY    61  48  63 S6        30.29R
$$

MEZ002-015-021-024-NHZ003-005-008-011-012-014-VTZ005-008-250300-
NORTHERN NEW ENGLAND

CITY           SKY/WX    TMP DP  RH WIND       PRES   REMARKS
PORTLAND ME    FAIR      71  41  33 SW8       30.12R
BANGOR ME      LGT RAIN  65  48  54 NW29G41   30.12R
CONCORD NH     MOCLDY    65  40  39 S5        30.17R
MANCHESTER NH  MOCLDY    69  40  34 SE6       30.17R
NASHUA NH      MOCLDY    70  41  34 VRB3      30.20R
PORTSMOUTH NH  CLOUDY    71  38  31 W5        30.15R
JAFFREY NH     MOCLDY    65  42  43 S7        30.23R
KEENE NH       CLOUDY   N/A N/A N/A CALM      30.21R
BURLINGTON VT  MOCLDY    71  34  25 SW6       30.12R
MT. WASHINGTON MOCLDY    45  30  57 W45G53      N/A
$$

NYZ052-076-250300-
EASTERN NEW YORK

CITY           SKY/WX    TMP DP  RH WIND       PRES   REMARKS
ALBANY         CLOUDY    67  45  45 CALM      30.20R
NEW YORK CITY  CLOUDY    69  51  52 S8        30.26R
$$

ANZALL-250300-
MARINE OBSERVATIONS

STATION/POSITION TIME  TEMP    WIND        PRES    VSBY  WAVE
                       AIR SEA DIR/SP/G                  HT/PER
                 (UTC) (F)     (DEG/KT/KT) (MB)    (MI)  (FT/S)
BOSTON BUOY      0150   60 53  230/ 12/ 14   N/A           2/ 3
BUZZARDS BAY     0100          240/ 20/ 21   N/A
NANTUCKET SOUND  0150   58 56  240/ 17/ 21   N/A           2/ 4
MASS BAY-STELLWA 0104   58 50  210/ 14/ 16   N/A    1 7/8  3/ 4
ISLE OF SHOALS   0100   76     240/ 13/ 13   N/A
S OF BLOCK IS    0108      53                N/A           4/ 5
$$

......................KEY.........................
  SKY/WX - SKY CONDITION/PRESENT WEATHER
  TMP    - TEMPERATURE IN FAHRENHEIT
  DWPT   - DEWPOINT IN FAHRENHEIT
  RH     - RELATIVE HUMIDITY IN PERCENT
  WIND   - DIRECTION AND SPEED IN MPH
  PRES   - MEAN SEA LEVEL PRESSURE IN INCHES OF HG
  WCI    - WIND CHILL INDEX
  VSB    - VISIBILITY IN MILES
  HX     - HEAT INDEX
  TC     - TEMPERATURE IN CELSIUS
  VRB    - VARIABLE WIND DIRECTION
  N/A    - NOT AVAILABLE


USA.gov is the U.S. government's official web portal to all federal, state and local government web resources and services.